Location: Albany
(42.6526°N, 73.7562°W)
Time: 07:40:27
(UTC+00:00)

NOSS 2-3 (D) - Pass Details

Date: 19 November 2019
Orbit: 597 x 1615 km, 63.4° (Epoch: 30 November)

Event Time Altitude Azimuth Distance (km) Brightness Sun altitude
Rises 22:24:11 0° 213° (SSW) 2,826 7.8 -10.2°
Reaches altitude 10° 22:26:19 10° 213° (SSW) 1,948 6.9 -10.6°
Maximum altitude 22:30:36 86° 126° (SE) 656 3.6 -11.4°
Drops below altitude 10° 22:35:36 10° 37° (NE) 2,256 6.0 -12.2°
Enters shadow 22:35:37 10° 37° (NE) 2,263 6.0 -12.2°
